RH
88 93 94 88 82 80 82 85 86 87 86 83 81 84 89 91 91 91 90 82 68 60 57 51 46 43 39 35 32 29 27 26 25 26 30 37 42 44 44 45 46 47 48 46 44 42 41 41 39 38 39 39 37 34 29 22 14 14 24 43 66 79 83 85 85 86 91 92 89 91 95 98 98 97
93 96 96 89 81 78 80 84 92 97 97 94 87 85 87 88 88 88 88 86 78 71 66 59 57 53 43 35 31 29 26 24 23 23 23 28 35 41 43 43 44 47 49 49 48 48 47 49 52 53 52 52 51 47 45 43 31 16 11 17 35 59 74 79 80 81 86 87 85 88 90 93 96 94
96 96 97 93 86 81 77 76 82 90 97 100 95 87 84 83 83 83 89 93 87 81 75 67 64 60 49 37 29 27 25 23 22 20 20 21 24 32 38 41 43 44 47 49 49 50 50 52 56 61 62 60 59 54 49 50 44 29 18 11 13 30 50 63 69 72 76 78 78 79 80 83 89 93
100 99 98 96 92 89 87 84 80 79 86 94 95 90 84 81 77 75 84 92 88 82 77 73 70 63 52 42 30 21 18 18 19 17 16 15 16 20 26 33 39 41 43 46 49 50 51 52 55 59 64 65 66 66 61 56 48 37 29 20 11 13 24 38 50 60 67 71 73 73 73 74 78 86
91 96 97 96 94 91 93 93 87 80 79 85 91 92 89 86 81 77 80 82 83 84 78 73 72 66 58 49 38 32 29 25 20 15 14 14 12 13 16 22 29 35 39 42 45 49 50 51 53 54 58 62 63 66 68 66 58 49 41 31 19 13 15 25 35 43 53 63 68 68 67 67 66 68
72 78 84 90 92 92 92 92 89 83 78 79 83 86 87 85 82 85 88 85 84 85 77 70 70 68 65 55 45 47 49 42 32 22 17 16 14 11 11 14 18 25 32 37 40 44 47 50 51 51 52 54 56 59 64 68 67 61 52 42 32 23 19 26 39 44 46 54 62 64 62 62 62 59
67 68 70 75 81 87 89 88 87 84 81 80 82 82 82 80 81 88 94 91 86 80 71 68 68 66 66 58 46 45 48 48 45 34 22 21 20 16 14 13 13 16 21 29 34 38 42 45 48 50 50 50 51 53 55 60 64 63 59 51 44 37 29 29 44 58 62 60 62 65 62 60 62 62
71 70 68 68 72 78 80 79 78 77 75 74 78 82 81 80 82 88 91 88 84 79 73 70 69 67 69 65 56 52 52 53 53 47 39 34 24 16 14 13 12 11 13 18 26 32 36 40 43 46 48 48 48 49 49 50 53 56 58 55 50 46 40 33 37 55 71 76 73 71 69 65 63 64
78 75 72 70 73 78 82 82 81 79 75 69 67 71 76 78 78 81 84 83 81 83 84 79 78 81 86 88 83 72 63 58 55 51 49 46 35 23 16 14 11 10 11 11 16 24 31 36 38 40 43 46 46 47 46 45 45 46 48 50 49 47 45 40 35 41 57 75 84 82 79 77 71 67
85 83 79 77 78 83 89 95 97 96 93 88 78 69 66 70 74 76 77 76 77 86 94 93 94 97 98 99 96 81 67 64 62 55 48 44 41 33 24 19 15 14 14 11 10 16 23 30 34 35 37 40 42 44 45 44 44 43 41 41 42 42 43 43 40 37 41 56 75 87 88 86 82 74
89 88 85 83 83 81 81 87 97 100 99 99 98 88 73 64 65 69 70 69 70 76 81 81 84 87 85 86 85 74 67 69 70 66 54 40 35 40 42 38 29 22 20 18 12 11 15 20 25 28 31 34 37 38 41 42 42 42 41 39 38 37 37 38 38 37 35 38 52 72 87 91 90 82
89 88 87 86 86 83 77 75 81 90 96 99 101 101 92 78 68 66 65 65 65 64 64 65 67 69 71 73 72 68 67 69 63 58 59 58 58 62 62 54 46 38 31 26 21 16 15 15 16 18 20 24 30 33 35 39 40 40 40 39 38 36 34 32 32 31 29 29 30 43 63 82 93 93
92 89 87 84 84 85 83 78 75 78 88 98 99 97 97 93 85 76 66 61 61 60 59 61 60 60 63 66 66 65 65 63 56 55 69 85 85 77 68 59 58 56 50 43 36 28 24 21 18 17 16 16 20 26 30 33 37 38 39 39 37 36 34 30 28 25 22 22 20 21 31 49 70 88
98 96 93 90 87 86 86 87 85 80 82 93 99 94 90 90 87 80 68 59 56 54 53 55 56 58 61 62 63 62 60 60 63 70 83 92 90 87 87 82 69 61 62 61 52 40 34 33 30 26 24 20 18 22 26 27 31 34 37 39 38 36 35 31 26 23 19 17 16 14 15 21 34 54
100 100 99 98 96 95 92 91 93 93 91 97 102 99 96 93 87 79 67 55 50 50 51 52 54 56 58 58 59 60 59 61 66 72 79 87 93 96 101 98 80 67 71 77 74 61 46 40 38 32 28 27 24 23 23 23 28 33 36 39 39 38 38 36 32 28 22 18 16 14 12 12 16 24
100 100 100 100 99 99 100 98 98 99 100 101 101 99 99 100 97 92 80 62 49 45 47 49 51 54 55 56 57 57 57 59 64 71 79 90 97 97 99 99 88 77 82 92 97 87 62 44 41 36 29 28 28 27 27 26 30 36 39 40 39 40 41 41 40 37 31 26 23 20 18 14 13 15
100 100 100 99 96 95 98 100 100 100 100 101 101 100 101 99 98 100 97 86 71 59 56 63 68 69 71 70 61 54 58 68 72 75 84 95 102 100 98 98 90 86 91 97 102 98 77 55 47 40 32 29 28 27 28 29 33 38 42 41 39 40 42 44 45 45 42 37 32 28 27 24 19 15
99 100 100 100 98 96 97 98 96 95 96 98 99 99 99 94 86 82 80 83 88 87 86 90 90 84 82 80 66 54 61 73 72 70 80 92 97 97 96 97 95 90 90 93 99 101 90 76 65 51 38 36 35 32 31 31 33 38 41 41 40 38 40 42 45 46 46 44 40 36 33 32 30 25
98 99 99 100 100 99 100 99 97 95 94 94 94 92 90 86 79 69 60 61 76 89 96 100 99 89 81 77 66 56 60 68 67 67 75 82 89 93 95 96 91 82 81 90 100 101 96 95 89 63 40 40 43 40 39 38 36 36 38 39 40 39 38 39 41 44 46 44 42 42 39 35 34 33
97 99 99 99 100 99 99 98 99 100 99 98 96 92 88 84 79 73 67 66 75 86 91 92 90 83 79 81 80 72 65 64 64 69 76 82 91 98 98 92 82 75 81 92 101 100 96 99 98 72 49 54 59 52 49 46 40 38 37 37 38 37 36 36 36 39 43 43 42 41 41 39 34 33
98 100 100 99 100 99 99 98 97 98 100 100 100 99 97 95 91 85 79 79 85 90 90 87 84 82 85 94 99 93 82 72 73 81 89 93 97 100 100 94 82 76 84 94 101 101 96 97 99 85 71 79 83 71 61 54 49 47 46 42 40 35 31 32 32 33 37 40 41 40 39 38 36 33
99 99 98 98 99 98 99 99 98 99 100 99 100 100 99 100 100 95 89 89 90 88 87 88 91 95 98 100 100 99 94 89 91 97 99 98 98 99 100 97 90 86 90 97 101 101 97 98 100 93 85 86 83 74 70 68 65 66 63 58 54 47 39 34 31 30 32 35 38 39 37 35 35 37
98 98 96 96 96 96 97 96 95 98 100 100 100 99 99 102 97 87 84 86 84 81 82 84 87 92 97 99 100 101 99 97 98 100 99 99 100 100 100 99 98 96 93 93 97 97 96 96 96 94 94 88 74 68 72 76 76 76 76 74 72 68 60 52 43 36 32 32 34 36 36 34 33 38
97 95 94 95 95 95 97 96 96 99 99 100 100 99 100 101 92 82 83 86 86 88 90 89 87 87 90 93 95 96 98 98 96 95 96 97 98 99 100 100 101 96 88 90 99 98 96 96 94 93 98 96 83 75 75 77 80 82 82 82 80 78 76 71 64 54 43 36 33 32 33 33 31 36
97 93 91 92 91 91 92 94 97 100 99 99 100 99 100 100 94 91 93 93 94 99 99 94 89 86 86 89 89 87 87 89 89 90 91 92 92 94 96 98 99 92 82 87 100 100 97 97 94 91 97 98 92 85 79 76 80 85 87 87 84 82 83 83 79 72 60 48 40 34 32 31 30 35
98 94 91 90 90 92 95 96 99 100 100 99 100 98 97 96 93 94 98 97 97 100 100 98 95 86 82 85 88 85 79 77 79 83 85 87 88 88 88 92 95 90 82 85 97 101 99 98 95 94 98 97 93 92 88 80 78 85 92 93 89 83 83 87 87 84 77 66 52 41 35 31 31 39
98 96 92 91 94 98 100 99 99 100 100 100 101 99 98 96 93 94 98 100 100 100 99 100 99 92 83 80 83 85 80 72 69 70 73 79 84 85 85 89 92 92 89 88 93 98 100 100 98 97 98 98 96 98 96 87 83 90 95 94 90 85 83 87 90 89 88 81 67 56 53 52 54 57
99 97 95 96 99 100 98 96 97 98 98 99 99 99 99 99 98 97 97 98 99 100 100 100 101 98 92 83 78 79 78 72 68 65 66 74 83 84 84 87 92 97 97 90 86 88 93 97 98 95 95 99 100 99 97 93 92 95 97 95 91 86 83 87 91 93 95 94 85 76 76 80 85 87
98 98 98 99 100 99 98 98 98 99 99 99 99 99 99 99 100 99 98 97 97 96 96 97 98 98 95 85 76 73 73 75 79 79 76 76 80 82 82 83 87 94 100 96 86 83 88 95 97 96 95 96 98 98 98 98 98 97 97 97 93 88 89 91 92 95 99 100 97 92 89 89 93 98
96 97 97 99 99 98 98 97 96 96 98 99 100 100 100 100 100 100 99 99 99 97 94 93 94 92 89 84 80 81 83 84 87 92 88 81 76 77 81 85 84 86 95 98 92 90 95 99 99 99 94 90 92 97 97 97 98 97 97 98 96 96 98 97 95 97 99 99 100 100 97 96 96 97
96 97 97 97 96 96 96 94 92 92 92 94 98 101 100 100 100 100 100 100 100 100 98 97 97 95 91 87 84 87 92 93 92 93 92 88 81 78 82 89 90 86 86 91 92 94 98 98 100 101 94 86 88 95 97 98 99 98 97 99 98 99 100 99 98 100 100 99 100 100 99 99 100 99
99 99 100 98 96 96 96 96 96 95 94 95 99 100 100 100 100 99 100 100 100 101 100 100 99 98 97 97 93 90 92 96 95 94 94 94 89 82 81 89 97 95 90 87 87 88 88 89 94 99 94 87 89 94 95 96 98 98 98 99 100 99 100 99 99 100 99 99 100 100 100 100 100 99
99 100 100 98 94 95 98 99 98 98 99 100 100 99 99 100 100 99 100 99 98 97 96 97 97 93 91 96 99 98 97 98 96 97 99 98 94 89 86 91 98 100 96 90 87 89 90 90 95 98 94 90 93 95 95 94 94 97 100 100 99 99 100 99 100 100 99 100 100 99 100 100 99 100
99 101 100 96 94 96 100 100 98 97 98 100 100 100 100 100 100 100 100 98 95 92 90 94 98 96 93 95 98 100 101 98 95 97 100 100 98 97 95 95 98 100 99 95 93 96 99 98 99 100 94 91 94 96 96 95 94 94 99 101 100 100 100 99 99 99 99 99 99 99 100 100 100 100
99 101 99 95 96 99 100 99 97 96 97 98 99 100 100 99 100 100 100 100 99 97 96 96 99 99 97 96 96 99 100 96 94 97 100 100 100 100 99 98 100 100 100 100 98 98 99 98 100 100 95 92 96 97 97 97 92 89 95 99 98 97 96 93 92 93 93 92 92 93 95 97 99 100
101 102 98 96 99 100 100 100 98 96 96 97 99 100 99 100 100 100 99 100 99 99 99 99 99 101 99 92 91 97 100 98 96 99 100 99 99 100 100 100 100 99 99 100 99 99 99 99 101 100 95 94 98 98 97 96 91 89 94 97 95 94 94 90 87 87 86 86 86 86 87 88 90 92
101 102 100 99 99 99 100 100 97 95 94 95 97 100 100 99 100 99 99 99 98 99 100 99 99 101 98 90 88 95 100 100 99 100 100 99 99 100 100 100 100 100 100 100 99 99 100 100 100 98 95 96 100 100 98 97 94 94 96 94 91 93 93 89 87 86 85 86 88 87 87 86 84 83
101 102 101 101 100 100 100 99 96 93 93 92 94 98 99 99 99 99 98 98 97 98 100 100 100 101 98 93 93 98 100 100 99 100 100 99 100 100 100 100 100 100 100 100 100 100 99 100 100 97 94 96 99 98 97 96 95 95 94 92 93 96 94 91 91 91 90 91 92 91 91 90 87 84
99 100 98 98 100 99 99 98 96 94 93 92 92 94 96 98 99 100 99 100 99 100 100 100 99 100 100 99 98 100 100 100 99 100 101 101 100 100 100 99 99 99 100 100 100 100 99 99 100 99 97 97 96 96 96 96 95 94 95 95 96 98 98 97 97 96 96 97 97 96 96 93 90 87
98 98 98 98 100 100 99 98 96 93 92 92 93 94 94 95 98 99 100 100 100 100 100 100 100 99 99 100 100 100 100 100 100 100 100 101 100 100 100 100 99 99 100 100 99 100 100 99 99 100 100 99 97 97 99 100 99 98 98 97 97 98 99 100 100 99 99 100 99 99 99 97 94 91
96 97 99 100 100 99 98 95 91 87 86 88 92 95 94 94 95 98 100 100 99 97 97 98 100 101 100 99 100 100 99 100 100 100 100 100 101 100 100 100 99 98 100 100 99 99 100 100 100 100 100 100 100 99 99 100 100 100 100 99 99 99 100 100 100 100 100 100 99 99 97 95 93 92
97 98 101 102 100 97 92 87 83 82 83 86 91 96 96 95 94 95 98 100 99 98 95 93 94 98 100 100 100 100 100 100 100 99 99 99 99 98 98 98 98 99 99 98 97 98 99 100 100 100 100 100 100 99 99 100 99 99 100 100 100 100 100 100 100 100 100 101 100 98 95 94 92 90
99 101 102 101 97 92 87 84 84 85 87 88 92 97 99 99 96 94 94 97 100 100 98 95 96 98 100 100 100 99 100 100 100 99 100 100 97 96 97 99 99 99 98 97 97 99 100 100 100 100 100 100 100 100 100 99 99 99 100 100 100 100 100 99 100 100 100 101 101 99 96 94 91 87
100 101 100 98 93 89 86 85 87 90 92 91 94 98 101 102 100 95 91 91 95 100 100 99 99 100 100 99 100 100 100 100 100 99 100 100 99 99 99 98 96 97 99 99 99 99 99 99 100 100 100 99 100 100 99 97 96 98 100 100 100 100 100 100 100 101 100 98 96 93 91 89 87 85
101 100 98 96 92 88 86 85 89 95 96 92 90 95 99 100 100 99 93 85 85 93 100 100 99 100 100 99 100 100 99 100 100 100 100 100 100 99 98 97 96 97 99 100 100 100 99 100 100 100 99 98 99 100 99 96 95 97 99 100 99 99 99 97 95 94 92 91 88 86 87 88 86 84
Wind_Speed
26 25 25 26 26 25 24 24 24 24 25 27 27 27 25 24 24 25 27 30 33 32 30 30 29 27 27 29 31 32 33 31 29 28 29 30 31 29 28 29 29 29 29 30 31 31 31 31 31 30 30 30 30 29 28 30 32 33 33 33 33 32 31 28 25 25 22 19 21 27 31 32 33 33
27 27 27 27 27 26 25 24 23 22 21 23 25 26 26 25 25 25 27 31 31 29 28 28 27 28 29 31 33 33 34 33 31 29 29 29 31 31 31 31 31 30 30 31 31 31 31 31 30 30 30 30 30 29 27 26 28 32 33 33 34 34 34 33 31 29 26 22 20 21 24 28 31 34
28 28 28 28 28 28 27 26 26 24 23 22 23 25 26 26 27 26 26 31 31 27 26 27 27 28 31 33 35 35 35 34 32 31 30 30 30 32 33 34 33 32 32 32 33 32 32 31 30 31 31 31 31 32 31 28 28 30 32 33 34 35 35 36 35 34 32 29 26 23 21 22 24 28
30 30 30 30 30 29 28 27 26 26 25 24 23 24 25 25 27 26 26 31 34 30 28 30 30 31 33 35 36 37 36 34 33 33 33 32 32 32 35 36 36 35 35 35 35 34 34 33 33 32 33 33 32 32 32 32 31 31 32 33 34 35 36 36 35 35 34 33 32 30 26 23 21 22
34 33 33 33 32 31 30 29 28 27 27 26 25 24 24 25 25 26 26 31 34 31 29 30 30 30 32 33 33 33 32 32 32 32 33 34 34 35 36 36 37 37 37 37 37 36 36 35 35 35 34 34 35 34 33 33 34 33 33 33 35 35 36 36 35 35 35 34 34 34 32 30 27 24
34 35 36 36 35 33 33 32 31 30 29 28 28 26 26 26 26 26 26 29 32 31 30 30 30 29 29 31 31 28 27 29 30 31 33 33 35 36 36 36 38 38 38 39 39 38 38 37 37 37 37 36 36 36 35 34 34 35 35 34 34 35 35 36 36 35 35 35 34 34 35 35 33 30
28 31 33 35 36 35 35 36 36 35 33 31 30 28 27 27 27 27 27 29 31 31 31 30 29 29 29 30 30 28 27 27 27 29 32 33 34 36 35 35 37 39 39 39 40 40 40 40 39 39 39 39 39 38 37 37 36 36 36 36 35 34 34 36 36 35 34 34 33 34 34 36 35 32
25 26 28 30 31 31 33 34 35 36 36 35 33 31 29 27 27 27 27 28 29 29 31 30 29 28 28 28 28 27 26 26 25 27 29 31 33 34 34 34 37 39 40 41 41 40 40 41 41 41 40 41 41 41 40 40 39 38 38 37 37 35 34 35 37 37 35 34 33 33 34 34 35 34
24 25 26 26 26 25 24 25 26 27 29 32 33 33 32 30 28 27 26 26 25 25 28 29 26 24 22 22 23 24 25 26 25 25 26 28 29 30 31 33 36 38 39 41 42 42 41 41 42 42 42 42 42 43 43 43 42 42 41 40 40 39 37 36 36 37 38 37 35 34 34 34 35 35
23 24 25 25 24 23 22 21 20 20 21 24 27 30 32 31 30 29 27 26 25 24 25 24 23 22 21 21 24 25 23 24 24 25 25 26 25 26 28 30 33 34 35 38 40 42 42 42 42 43 43 44 44 44 44 45 45 45 44 44 43 42 41 39 38 38 38 39 39 37 36 35 35 35
22 23 24 24 24 25 24 23 22 20 19 20 22 24 27 30 31 31 30 28 28 27 27 27 26 26 26 26 27 25 22 23 24 23 24 23 22 22 24 25 26 27 30 33 36 39 41 43 43 44 44 44 45 45 45 45 46 46 46 46 46 46 45 44 42 41 40 39 40 41 40 38 36 36
20 21 22 22 22 23 24 25 25 23 20 20 20 21 22 25 28 29 30 31 31 30 30 31 30 29 29 28 28 25 23 23 22 19 21 23 22 20 20 20 21 21 24 28 32 34 37 41 43 44 45 45 45 45 45 45 46 47 47 47 47 47 47 46 46 45 44 42 41 42 43 42 40 39
16 17 19 19 20 20 21 23 25 25 24 24 24 23 22 24 26 28 30 32 32 32 32 32 31 30 30 29 27 25 22 21 21 18 20 22 20 17 17 18 17 18 19 22 27 30 33 36 39 41 44 45 45 45 45 45 45 46 46 47 47 46 47 48 48 48 47 46 45 44 44 44 44 43
14 15 15 16 16 17 18 20 22 24 26 27 28 27 25 25 26 29 31 33 34 33 33 33 31 31 31 29 27 25 22 21 22 20 19 19 19 19 20 20 16 15 17 20 24 27 29 31 34 36 39 42 43 44 45 45 46 46 45 44 44 44 45 46 47 48 48 48 48 47 45 45 46 46
15 15 15 15 14 15 16 17 18 20 23 25 27 28 28 27 26 27 28 31 32 32 33 32 30 31 32 28 25 25 23 22 22 21 20 21 22 22 23 23 20 17 18 22 25 27 27 27 31 33 35 37 39 41 43 44 44 44 43 42 42 42 43 44 45 46 47 48 48 48 47 46 46 47
17 15 15 16 16 16 16 16 16 18 19 20 23 25 26 27 27 27 26 27 27 29 31 31 31 31 30 26 25 25 23 22 21 21 21 20 21 20 20 22 23 20 19 22 26 29 27 27 29 32 33 35 36 37 39 40 41 41 41 41 41 41 42 42 43 44 45 46 46 47 47 47 47 47
17 15 13 14 15 15 16 17 18 19 18 18 19 21 23 25 27 27 27 26 25 26 27 28 28 27 27 26 25 22 21 21 21 20 20 19 20 21 20 22 24 22 22 24 26 29 27 25 28 32 33 32 33 34 35 37 38 39 39 39 40 41 42 43 43 43 43 44 45 45 46 46 47 47
14 14 13 13 11 10 11 14 16 17 18 18 18 19 20 22 23 25 26 26 26 28 29 31 31 27 26 27 23 19 20 24 24 22 22 22 22 22 22 24 26 25 23 23 25 27 26 22 23 29 31 31 32 34 35 36 38 39 40 40 40 41 42 43 44 44 43 43 44 44 44 45 45 46
11 11 12 12 12 10 9 9 10 11 12 14 16 19 20 21 21 22 24 25 26 28 31 33 34 30 28 28 25 21 22 26 26 25 24 23 23 24 25 26 27 25 21 20 21 25 24 21 21 25 28 29 31 32 34 35 37 39 41 42 43 43 43 44 45 45 44 44 43 43 42 43 44 45
10 10 10 11 11 11 10 9 9 10 11 11 13 15 18 20 22 24 25 25 26 26 27 29 30 29 28 26 25 24 24 26 26 25 25 26 25 24 25 27 27 23 19 16 17 21 22 21 21 23 24 26 28 30 32 34 35 38 40 42 44 45 46 46 47 46 45 44 43 42 41 41 42 44
10 12 13 13 13 14 13 11 11 12 14 16 16 16 16 17 20 23 24 25 26 26 25 26 27 28 27 27 27 26 24 23 23 24 27 26 23 23 24 27 26 22 19 15 14 18 21 20 20 20 20 21 23 25 27 30 33 35 37 40 42 45 46 48 48 49 48 46 44 42 41 40 40 41
12 14 15 15 16 17 16 15 13 13 15 19 21 21 21 20 21 22 21 22 25 26 27 28 28 28 28 28 27 25 23 21 21 25 28 26 23 25 27 27 25 23 21 18 13 16 19 18 17 17 17 18 19 19 21 23 26 29 32 35 38 41 44 47 48 49 50 49 47 44 42 40 39 39
15 16 18 18 18 19 19 18 17 16 17 20 22 23 23 24 24 24 21 21 21 22 23 25 26 26 26 25 23 22 22 23 23 25 27 26 25 27 28 26 24 22 21 16 10 12 15 15 13 13 15 17 18 16 15 16 18 20 23 27 31 35 39 43 46 48 49 50 50 48 44 41 39 40
18 18 18 19 19 20 20 20 20 19 19 21 22 22 24 25 26 24 21 20 19 20 21 21 22 22 22 21 21 22 23 23 23 24 25 25 25 27 28 26 24 23 21 15 10 10 12 11 10 10 12 15 17 17 15 14 14 16 17 20 24 28 32 37 42 45 47 49 50 50 48 44 41 41
21 19 17 17 17 19 19 20 21 21 22 22 23 25 27 28 26 24 23 22 22 23 23 23 22 22 22 21 22 23 24 24 23 23 24 25 25 26 27 27 26 26 23 17 13 13 13 12 11 10 11 14 17 19 18 16 15 15 16 17 20 22 26 31 36 40 43 46 49 50 51 48 44 43
22 19 16 16 17 17 17 17 18 19 21 22 24 25 26 27 26 26 26 26 26 26 25 24 25 25 25 24 23 24 25 26 25 24 24 25 25 26 27 26 27 28 24 18 15 15 14 13 13 12 12 15 17 18 19 19 16 15 16 18 20 21 22 25 31 35 38 42 46 48 49 48 45 44
22 19 16 16 15 14 14 15 17 19 20 21 23 24 24 25 25 27 28 28 28 28 27 26 27 27 26 26 25 24 25 27 27 27 26 25 25 25 26 26 26 27 24 20 19 18 16 16 15 13 13 15 16 18 19 19 18 17 18 19 21 23 22 22 26 32 34 37 41 44 44 44 43 43
21 19 17 16 15 15 16 16 17 19 20 21 23 24 24 24 25 27 29 29 30 30 29 28 28 28 27 26 26 25 24 25 26 27 27 27 25 24 25 26 26 25 23 22 22 22 20 19 17 15 15 15 17 19 19 19 19 18 19 21 22 22 21 20 23 28 30 31 35 38 39 39 39 40
20 18 16 15 16 16 16 15 16 17 18 19 21 23 24 24 24 25 26 28 29 31 31 30 30 30 28 26 25 24 23 23 23 24 25 27 27 26 26 26 26 25 24 23 23 23 22 21 18 17 16 17 18 19 19 19 19 18 19 21 21 19 19 18 18 22 25 28 30 32 34 34 36 39
19 17 15 15 15 14 13 14 15 15 16 17 19 20 20 20 19 20 21 23 26 28 29 30 31 32 30 27 25 23 22 22 22 21 22 25 27 27 25 25 26 25 24 24 24 23 23 22 20 18 17 18 19 19 18 19 19 17 17 18 17 15 16 17 18 20 22 25 27 29 31 33 36 39
18 16 14 13 13 13 13 14 15 16 16 16 17 19 20 20 19 19 20 21 23 24 25 25 25 26 27 27 28 27 26 25 22 20 20 23 26 27 25 23 24 24 24 24 23 23 23 23 21 19 18 18 18 18 17 18 17 16 15 14 13 12 10 10 13 18 21 24 26 27 28 30 33 37
16 15 14 13 12 12 12 14 16 18 17 17 16 16 19 20 20 20 21 21 22 22 22 21 20 20 21 23 25 27 28 27 23 19 19 22 24 25 25 23 23 23 23 23 22 21 22 23 23 21 19 18 18 17 17 16 15 14 13 11 9 10 7 4 6 11 14 19 23 22 22 22 24 28
17 16 14 11 10 10 12 14 15 16 15 16 16 15 15 17 19 20 22 22 22 23 23 23 22 22 21 21 21 23 24 25 22 19 18 20 22 23 24 23 22 22 23 23 22 22 22 23 23 22 20 18 18 17 17 15 11 10 10 8 6 7 6 4 5 5 6 10 14 16 17 16 17 17
18 15 12 10 9 10 12 13 13 12 12 12 13 13 14 15 16 17 18 18 19 21 23 24 24 24 23 21 20 21 22 22 20 18 18 19 20 21 22 21 20 20 22 23 23 23 23 23 23 21 19 17 18 18 17 13 9 7 7 7 7 7 6 6 5 4 4 5 6 9 11 13 13 13
17 14 11 9 9 11 13 13 13 12 11 10 10 11 11 12 12 11 11 11 12 14 16 18 19 22 24 23 21 20 20 21 20 18 17 18 20 21 21 19 18 19 21 22 23 23 22 22 22 20 18 17 19 19 16 13 10 9 8 8 9 8 7 5 5 5 5 5 5 5 6 8 10 12
15 13 11 10 11 13 14 14 14 14 13 11 10 10 10 11 12 12 12 12 11 10 12 14 15 17 21 23 22 19 18 17 18 18 18 19 21 21 20 18 17 18 20 21 21 21 21 22 22 19 16 16 18 18 16 13 12 11 10 11 11 9 8 6 5 4 3 3 4 4 4 4 5 6
15 13 12 12 12 14 15 15 16 16 15 13 11 10 11 11 12 13 16 16 14 12 12 13 15 15 16 20 21 19 16 16 17 19 19 20 21 20 18 16 16 16 17 18 19 21 22 22 21 19 16 15 17 18 16 14 12 11 12 13 12 10 9 7 4 3 2 2 2 2 1 1 1 1
15 13 13 13 12 14 15 16 16 16 16 14 12 11 10 10 11 12 13 14 14 13 11 10 11 12 13 15 16 16 15 15 17 19 20 20 20 19 17 17 16 15 15 15 18 21 22 21 20 19 17 16 17 18 18 15 13 12 13 14 12 11 10 8 6 4 4 4 4 3 2 2 2 2
14 13 13 12 12 14 15 15 15 15 15 14 12 11 9 9 10 10 9 9 10 10 8 7 8 9 11 13 13 13 14 16 18 19 19 20 19 18 17 16 16 16 15 15 18 20 21 20 19 19 19 18 18 18 17 16 15 15 16 15 14 12 11 9 8 7 7 6 6 6 6 6 5 5
14 13 12 11 13 14 14 12 11 11 11 12 12 11 9 8 8 9 8 8 7 7 5 5 6 8 12 14 14 13 13 15 17 18 18 18 17 15 15 16 16 15 15 15 16 17 17 18 19 19 19 19 19 18 17 15 14 15 17 17 15 14 12 11 10 9 9 9 9 9 9 8 7 7
13 12 11 12 13 12 11 9 9 10 11 11 11 11 10 8 7 7 7 7 7 6 6 6 5 5 9 13 14 14 13 13 14 15 15 13 13 14 15 15 15 14 14 14 15 15 16 17 19 18 18 18 18 19 18 16 14 15 16 17 16 15 13 12 11 11 10 11 11 11 11 10 8 8
12 11 11 12 11 10 9 10 10 10 11 11 11 11 10 9 7 7 6 6 6 7 8 8 7 6 6 9 12 13 12 12 12 12 12 12 12 13 14 14 13 13 14 15 15 14 14 15 16 16 17 18 18 19 19 17 16 16 16 16 16 15 14 13 12 12 12 12 12 11 11 10 9 9
11 11 10 10 10 9 9 10 10 9 10 10 10 10 10 9 8 7 6 6 5 5 7 9 9 7 5 6 10 10 10 11 11 10 11 12 13 13 14 14 14 15 15 15 14 13 11 12 13 14 14 15 16 16 14 13 13 14 14 14 14 14 13 13 12 12 12 12 11 11 11 10 10 10
12 11 10 9 9 9 9 9 9 8 8 8 9 9 9 9 8 7 7 6 6 5 5 6 7 7 5 5 8 9 8 8 8 8 10 12 12 13 14 12 12 12 11 10 11 12 11 10 11 12 12 12 13 13 12 11 11 12 12 12 12 12 12 13 12 12 13 12 12 12 12 12 12 12
13 11 11 9 8 8 8 8 7 7 7 7 8 8 8 8 8 7 7 7 6 6 5 5 7 8 7 7 9 10 9 8 8 9 11 11 11 13 12 9 8 9 9 7 9 11 12 11 11 13 13 12 13 13 13 13 13 13 13 13 13 13 13 13 13 14 14 13 14 14 14 14 15 15
Wind_Direction
259 258 258 260 262 263 262 261 259 258 257 257 257 258 260 263 269 276 281 281 279 280 281 279 277 275 271 265 261 257 256 254 253 252 251 251 250 248 247 246 246 246 246 246 247 248 248 248 247 247 248 247 245 243 244 245 243 241 240 239 237 236 236 236 237 238 240 239 235 237 239 236 229 226
257 256 256 257 259 261 261 261 257 254 253 253 254 256 257 258 261 267 273 277 279 280 282 279 278 277 272 266 262 259 257 255 254 254 254 253 252 251 249 248 248 247 246 246 247 247 247 248 248 248 248 249 247 245 243 243 244 242 240 239 238 238 237 238 240 243 244 239 234 236 238 237 234 231
254 254 254 255 256 258 261 262 259 254 250 250 250 251 253 255 258 261 267 271 274 276 278 279 278 278 275 271 267 263 260 260 259 257 256 256 255 253 251 249 249 248 248 248 247 247 247 247 247 247 247 247 248 248 246 244 244 243 241 239 238 238 239 240 242 244 247 244 237 235 234 235 237 236
253 253 253 253 255 257 258 258 257 256 253 251 250 250 252 252 255 257 260 265 269 271 274 276 277 278 278 278 275 271 269 268 266 261 258 257 257 255 252 250 249 249 248 249 248 248 248 248 248 247 247 248 248 248 248 247 246 245 243 240 238 237 239 241 242 242 245 246 243 240 236 235 237 236
253 253 254 254 255 255 255 255 255 256 256 253 249 249 250 250 250 253 256 262 268 271 273 274 277 279 281 281 280 278 277 273 268 263 258 256 256 255 254 252 250 249 249 249 249 249 249 249 249 249 249 249 249 248 248 248 248 248 248 245 241 238 237 239 242 242 242 243 243 243 241 239 240 239
254 254 255 255 256 255 255 255 256 256 257 255 252 250 250 251 250 249 251 258 265 271 273 274 277 279 279 279 278 277 275 273 270 264 259 256 254 253 254 255 253 250 249 249 249 250 250 251 251 250 250 251 250 250 249 249 250 249 250 250 247 244 240 238 240 241 241 241 240 241 241 241 242 241
256 255 254 255 255 255 256 256 256 257 257 256 253 251 250 251 251 248 248 255 263 270 274 275 276 278 278 278 277 276 274 273 271 267 262 258 256 254 254 256 256 253 251 250 250 250 250 251 252 252 252 252 252 252 252 251 251 251 251 252 251 250 246 242 240 239 240 241 240 239 239 240 241 240
260 258 256 255 255 255 257 258 258 258 258 256 254 252 249 249 251 251 251 254 260 268 273 275 276 278 282 283 282 280 278 275 271 268 266 263 261 258 256 256 257 256 254 253 251 250 250 251 252 253 253 254 254 254 254 254 254 254 254 254 253 252 250 247 245 242 240 240 240 239 238 238 238 237
262 260 259 258 256 254 254 256 257 257 257 256 255 253 251 249 249 251 252 254 258 264 270 274 277 282 286 286 283 279 277 278 276 272 269 268 266 262 258 256 256 257 257 255 253 251 251 251 252 253 253 255 255 256 256 256 256 256 256 256 256 254 253 251 248 246 242 240 240 239 238 238 237 236
262 261 261 260 256 250 245 245 249 255 255 254 252 251 251 250 250 251 252 255 258 261 264 268 272 273 273 276 279 278 279 282 283 279 274 270 267 265 263 259 257 258 259 258 256 254 252 251 252 252 253 254 255 256 257 258 258 258 258 257 257 256 256 255 253 250 247 244 241 240 238 237 237 236
265 262 261 261 257 252 244 238 238 246 251 251 249 248 247 248 249 251 253 256 258 260 262 264 266 267 268 271 277 280 282 283 282 281 278 273 269 270 271 268 263 261 260 259 257 255 253 252 252 252 252 253 254 255 256 258 259 259 260 260 259 258 258 258 257 256 253 249 246 242 239 236 236 236
270 267 264 262 260 256 250 242 239 241 243 247 249 246 243 244 245 248 251 254 256 259 263 265 267 270 271 272 276 278 279 277 272 271 277 281 283 280 275 269 264 260 257 256 255 254 253 253 252 252 253 253 253 254 255 257 258 259 261 261 262 262 261 260 260 260 258 256 252 247 243 239 236 236
278 273 269 266 263 260 256 250 247 245 242 245 249 248 244 240 240 244 247 250 254 257 261 264 267 270 270 270 274 274 271 267 267 272 281 286 290 288 277 268 263 261 260 258 256 253 252 253 252 252 253 253 253 254 254 255 257 258 260 261 263 264 264 263 262 261 261 260 257 253 249 245 241 238
289 283 278 275 270 264 260 255 251 249 247 247 250 253 252 247 244 244 246 249 252 255 258 261 264 267 267 268 270 270 266 265 271 280 283 282 287 290 286 282 277 272 274 274 268 259 253 254 254 252 253 253 253 254 255 255 256 257 259 261 262 263 264 264 263 262 261 261 260 257 254 250 247 243
291 283 275 275 273 267 263 258 253 252 250 249 249 250 253 254 252 251 250 249 250 251 254 256 258 262 265 266 268 268 268 270 273 277 277 279 283 283 281 282 283 283 286 288 285 274 260 253 254 252 251 253 253 253 255 255 255 256 258 259 261 261 262 262 263 263 262 260 260 259 257 253 250 248
295 287 273 265 261 260 261 260 258 255 253 251 250 248 248 250 250 252 252 251 248 246 248 252 255 259 263 266 266 266 268 270 271 273 275 277 280 279 276 278 281 285 290 293 294 288 269 252 250 251 250 251 252 252 253 253 253 254 255 256 258 258 259 260 260 260 261 260 260 259 258 255 252 249
294 293 284 272 261 255 254 255 256 256 252 249 249 248 246 245 244 243 245 248 249 248 250 254 257 260 264 267 266 264 267 271 271 272 271 270 274 278 276 276 281 286 289 291 295 292 277 256 247 248 248 249 250 250 250 250 249 249 250 252 254 255 256 257 257 258 258 259 259 259 258 257 254 251
291 291 294 292 287 276 262 256 255 255 254 249 245 243 241 241 239 236 233 234 240 247 252 259 263 264 266 269 268 261 264 270 270 268 268 266 269 274 275 277 281 283 285 289 289 284 276 264 253 249 248 249 249 247 246 245 244 245 246 248 251 253 254 255 256 256 257 257 258 258 258 258 257 254
286 287 290 292 295 297 290 281 273 266 264 259 250 244 241 240 240 236 231 229 232 238 244 251 258 263 265 268 269 264 262 266 268 271 273 272 274 276 278 281 281 279 281 286 282 274 269 264 260 254 250 250 251 249 247 245 243 243 245 247 249 251 253 254 255 255 256 256 257 257 256 257 257 256
284 285 287 284 283 284 283 281 281 281 280 274 265 258 250 246 244 241 237 235 236 239 241 244 249 256 261 266 272 272 269 267 269 274 275 273 273 274 277 280 280 280 286 286 271 264 262 260 260 258 254 256 257 253 251 249 246 245 245 246 248 249 251 253 254 255 255 255 255 255 255 255 256 255
287 288 289 287 284 281 276 268 266 274 278 274 272 273 270 263 258 252 245 241 240 240 242 243 246 251 257 262 267 270 269 267 266 267 267 267 267 267 269 276 279 282 290 286 259 251 256 258 260 261 259 261 263 261 259 255 252 250 249 248 248 248 248 249 251 252 253 253 253 253 252 253 253 254
278 276 274 274 274 273 273 268 257 256 266 268 267 269 270 271 267 259 250 247 244 242 243 244 245 249 253 257 260 259 259 259 258 257 260 263 264 263 264 270 275 280 287 286 260 245 252 257 260 263 265 265 264 263 262 260 256 254 253 252 251 250 249 248 248 248 249 249 250 250 250 251 251 251
281 276 272 271 270 269 271 270 262 253 252 257 260 263 265 267 264 259 257 258 255 251 251 249 249 251 251 252 253 252 250 251 249 249 254 257 258 260 262 266 270 275 281 282 266 249 255 260 259 264 273 276 271 265 265 265 263 262 260 259 257 255 253 251 249 248 246 246 246 247 248 249 250 249
293 287 278 273 271 270 268 268 266 261 253 250 252 255 258 262 264 266 269 272 271 270 268 263 259 258 254 250 250 250 249 249 247 246 249 249 249 253 258 260 262 262 264 268 271 269 269 271 267 266 276 281 279 278 279 277 276 277 275 270 266 261 257 254 251 249 247 244 243 243 245 247 249 247
297 292 282 277 276 274 269 263 260 259 256 252 251 253 256 260 266 271 272 272 273 275 274 270 265 260 255 252 251 250 249 249 249 248 249 248 247 249 253 256 257 257 256 257 265 273 276 276 274 273 277 281 282 285 287 283 281 285 285 282 279 272 262 254 249 248 247 244 241 240 241 243 246 245
296 294 287 285 284 282 278 272 267 263 260 257 254 253 252 254 258 263 266 269 271 271 270 269 267 262 257 253 250 248 248 248 249 250 251 251 252 252 252 254 256 258 259 257 257 264 271 272 270 271 274 280 285 291 290 285 284 290 292 293 293 287 274 259 248 244 243 243 241 239 238 240 242 242
294 294 292 292 292 288 283 279 274 269 263 260 259 258 256 254 253 254 258 260 263 265 266 265 264 264 261 255 250 247 248 248 248 249 250 251 253 254 254 254 255 258 260 256 250 253 261 263 263 264 269 276 284 289 288 285 288 295 298 299 298 293 284 269 250 242 240 241 240 238 236 236 237 237
291 292 294 298 296 287 281 277 272 265 258 254 253 253 255 256 254 252 252 252 253 256 258 259 260 262 262 259 254 249 249 250 249 248 247 247 249 253 255 255 254 254 254 250 245 245 251 256 259 262 266 271 277 282 283 284 288 295 299 300 300 296 290 277 256 242 238 239 241 239 236 233 231 230
288 289 292 294 289 282 280 281 280 276 268 260 255 253 252 253 254 254 255 255 254 253 253 255 257 257 257 259 259 255 252 251 251 248 245 243 244 249 253 254 253 251 249 246 242 241 246 253 258 262 265 265 268 274 280 284 288 294 297 299 302 299 291 283 265 246 238 236 236 237 236 232 228 227
281 282 287 290 285 280 279 282 288 288 279 267 260 258 256 255 254 255 256 256 257 257 257 256 255 253 253 255 259 259 257 254 250 246 243 241 240 242 248 253 254 252 249 245 240 237 243 251 255 259 264 264 264 269 277 282 286 291 294 298 301 296 288 282 269 253 244 239 234 231 231 232 229 228
279 280 286 290 285 281 284 290 297 301 295 282 268 258 254 252 251 252 253 252 252 255 257 258 258 256 254 253 253 253 253 254 252 245 240 238 237 237 242 250 254 253 251 247 241 236 239 247 252 256 263 264 263 266 274 281 285 287 289 296 295 285 282 276 252 236 230 230 228 223 222 224 225 225
282 282 286 286 284 288 296 301 303 303 301 296 285 268 255 250 249 250 254 255 252 251 251 254 258 259 257 254 250 248 248 249 248 242 236 237 236 234 237 244 248 249 249 246 240 234 235 242 247 254 261 263 261 262 270 279 282 279 281 290 285 267 261 245 208 199 197 205 207 201 199 205 211 216
280 281 284 283 285 296 303 303 302 302 299 294 288 279 265 255 252 253 256 257 255 252 250 250 250 253 255 255 251 247 244 243 241 235 232 234 234 231 232 238 241 242 242 241 237 234 237 242 246 251 257 257 253 256 266 273 274 270 269 270 256 236 222 192 174 166 168 187 191 184 182 187 192 200
273 274 275 275 284 295 298 298 303 308 306 296 287 281 273 265 261 261 262 262 260 257 257 254 249 246 249 253 252 247 240 236 233 230 228 231 231 227 227 232 237 238 237 236 236 235 237 241 245 248 251 250 247 250 257 259 261 268 262 238 211 198 187 169 159 152 143 155 170 174 176 179 180 181
267 265 261 263 275 285 290 297 308 315 316 310 296 286 277 268 261 259 267 276 276 270 268 266 257 247 244 247 252 251 242 234 229 225 223 226 227 224 223 228 235 236 234 234 236 237 236 238 241 242 246 246 243 244 246 244 250 265 254 214 189 180 174 161 144 133 126 124 133 145 152 161 172 177
260 257 251 251 264 276 284 294 304 309 315 315 304 293 283 271 260 255 263 276 286 286 278 273 267 255 244 240 244 249 245 234 224 218 218 221 221 220 222 227 232 236 235 233 233 234 235 235 236 238 243 245 239 237 237 236 241 248 233 204 184 170 164 159 144 132 125 118 125 133 132 133 150 170
256 253 246 244 257 272 282 291 297 299 305 311 305 298 293 286 277 270 266 269 279 289 284 269 261 255 242 234 235 240 239 230 219 213 213 215 215 215 220 226 231 235 236 230 228 230 232 234 235 236 240 240 235 233 236 237 235 228 210 197 190 180 172 169 164 160 167 172 164 160 155 137 129 169
256 252 246 247 259 272 280 287 290 290 294 298 299 298 300 299 296 288 277 273 280 291 287 268 255 246 230 222 225 230 230 222 213 210 209 211 212 213 218 223 226 229 229 227 227 228 230 232 236 238 238 235 232 233 237 237 231 218 203 198 200 198 189 185 190 203 210 213 216 223 238 259 268 249
252 248 246 253 264 274 280 283 283 283 286 288 289 292 297 301 301 295 285 281 288 294 285 265 255 241 219 211 217 227 224 213 207 209 211 211 212 215 218 221 223 224 227 231 232 228 227 229 232 235 236 235 233 236 241 243 235 223 211 205 206 206 200 196 198 205 212 219 226 234 244 250 250 241
244 241 246 255 265 273 278 279 278 281 285 287 287 288 289 291 292 288 283 281 288 301 304 283 260 237 222 216 214 218 219 212 208 210 211 210 214 221 223 222 222 221 225 230 229 224 223 227 229 231 231 231 230 234 240 245 242 230 216 208 208 208 205 203 204 207 215 225 234 241 246 244 235 226
234 237 245 255 264 271 273 274 278 282 284 288 288 287 285 284 282 282 279 269 266 278 294 299 290 257 234 222 211 206 210 212 211 211 213 216 222 223 218 216 217 216 217 221 225 226 227 230 232 232 228 222 222 226 232 239 243 235 220 211 211 213 212 213 218 224 231 237 239 240 242 240 232 221
230 238 244 251 260 266 269 275 280 279 280 282 283 283 285 286 284 281 275 265 257 254 259 269 281 289 262 224 206 201 202 205 208 213 215 214 213 208 207 212 218 221 226 229 231 233 232 229 229 229 224 218 218 222 227 233 235 228 217 211 212 215 218 222 229 236 243 244 241 237 235 232 228 223
225 233 240 246 254 262 270 277 279 277 277 277 277 279 281 283 284 281 273 269 267 255 248 251 258 269 266 216 193 187 188 195 205 210 202 197 198 203 211 222 229 231 235 237 230 223 221 220 218 216 213 210 210 210 211 212 213 211 210 212 213 215 220 224 226 230 234 235 234 234 233 231 230 231
218 227 235 242 251 262 270 274 276 277 277 273 272 275 277 277 281 281 273 267 261 247 243 242 235 238 245 212 180 172 176 187 197 197 190 190 200 209 214 223 229 226 226 226 215 207 210 215 209 199 195 195 195 194 195 199 205 208 212 215 215 215 219 223 224 227 231 235 239 242 242 240 239 238
214 224 232 237 249 261 268 272 273 273 273 271 269 272 273 272 275 276 273 269 259 240 232 228 215 214 222 211 187 180 186 189 186 188 194 202 213 215 210 209 218 219 216 213 205 204 210 215 208 199 199 203 203 203 207 213 217 217 219 220 220 220 223 229 235 240 244 247 250 251 252 251 249 246